Time,TemperatureF,DewpointF,PressureIn,WindDirection,WindDirectionDegrees,WindSpeedMPH,WindSpeedGustMPH,Humidity,HourlyPrecipIn,Conditions,Clouds,dailyrainin,SoftwareType,DateUTC
2013-09-13 06:49:00,51.8,44.5,30.09,NW,315,0.0,0.0,76,0.00,,,0.00,WUHU21623XXSP,2013-09-13 10:49:00,
2013-09-13 06:50:00,51.8,44.5,30.09,NW,315,0.0,0.0,76,0.00,,,0.00,WUHU21623XXSP,2013-09-13 10:50:00,
2013-09-13 06:55:00,51.8,44.5,30.09,NW,315,0.0,0.0,76,0.00,,,0.00,WUHU21623XXSP,2013-09-13 10:55:00,
2013-09-13 07:00:00,51.8,44.5,30.09,NW,315,0.0,0.0,76,0.00,,,0.00,WUHU21623XXSP,2013-09-13 11:00:00,
2013-09-13 07:05:00,51.8,44.5,30.09,NW,315,0.0,0.0,76,0.00,,,0.00,WUHU21623XXSP,2013-09-13 11:05:00,
2013-09-13 07:10:00,51.8,44.5,30.09,NW,315,0.0,0.0,76,0.00,,,0.00,WUHU21623XXSP,2013-09-13 11:10:00,
2013-09-13 07:15:00,51.8,44.5,30.09,NW,315,0.0,0.0,76,0.00,,,0.00,WUHU21623XXSP,2013-09-13 11:15:00,
2013-09-13 07:20:00,51.8,44.5,30.09,NW,315,0.0,0.0,76,0.00,,,0.00,WUHU21623XXSP,2013-09-13 11:20:00,
2013-09-13 07:25:00,51.8,44.5,30.09,NW,315,0.0,0.0,76,0.00,,,0.00,WUHU21623XXSP,2013-09-13 11:25:00,
2013-09-13 07:30:00,51.8,44.5,30.10,NW,315,0.0,0.0,76,0.00,,,0.00,WUHU21623XXSP,2013-09-13 11:30:00,
2013-09-13 07:32:00,51.8,44.5,30.10,North,0,0.0,0.0,76,0.00,,,0.00,WUHU21623XXSP,2013-09-13 11:32:00,
2013-09-13 07:35:00,51.8,44.5,30.10,NW,315,0.0,0.0,76,0.00,,,0.00,WUHU21623XXSP,2013-09-13 11:35:00,
2013-09-13 07:40:00,51.8,44.5,30.10,North,0,0.0,0.0,76,0.00,,,0.00,WUHU21623XXSP,2013-09-13 11:40:00,
2013-09-13 16:41:00,63.3,46.9,30.09,North,0,0.0,0.0,55,0.00,,,0.00,WUHU21623XXSP,2013-09-13 20:41:00,
2013-09-13 16:46:00,63.8,46.9,30.08,NW,315,0.0,0.0,54,0.00,,,0.00,WUHU21623XXSP,2013-09-13 20:46:00,
2013-09-13 16:51:00,64.3,47.4,30.08,NNW,337,0.0,0.0,54,0.00,,,0.00,WUHU21623XXSP,2013-09-13 20:51:00,
2013-09-13 16:56:00,64.9,47.9,30.08,NNW,337,0.0,0.0,54,0.00,,,0.00,WUHU21623XXSP,2013-09-13 20:56:00,
2013-09-13 17:01:00,65.1,48.0,30.08,West,270,0.0,0.0,54,0.00,,,0.00,WUHU21623XXSP,2013-09-13 21:01:00,
2013-09-13 17:06:00,65.1,48.0,30.09,WNW,292,0.0,0.0,54,0.00,,,0.00,WUHU21623XXSP,2013-09-13 21:06:00,
2013-09-13 17:11:00,65.1,47.5,30.08,NW,315,0.0,0.0,53,0.00,,,0.00,WUHU21623XXSP,2013-09-13 21:11:00,
2013-09-13 17:16:00,65.1,48.0,30.08,NW,315,0.0,0.0,54,0.00,,,0.00,WUHU21623XXSP,2013-09-13 21:16:00,
2013-09-13 17:21:00,65.1,47.5,30.09,NW,315,0.0,0.0,53,0.00,,,0.00,WUHU21623XXSP,2013-09-13 21:21:00,
2013-09-13 17:26:00,65.1,47.5,30.08,NW,315,0.0,0.0,53,0.00,,,0.00,WUHU21623XXSP,2013-09-13 21:26:00,
2013-09-13 17:31:00,65.1,47.5,30.09,NW,315,0.0,0.0,53,0.00,,,0.00,WUHU21623XXSP,2013-09-13 21:31:00,
2013-09-13 17:36:00,65.1,47.5,30.08,NW,315,0.0,0.0,53,0.00,,,0.00,WUHU21623XXSP,2013-09-13 21:36:00,
2013-09-13 17:41:00,65.1,47.5,30.08,NW,315,0.0,0.0,53,0.00,,,0.00,WUHU21623XXSP,2013-09-13 21:41:00,
2013-09-13 17:46:00,65.3,47.7,30.08,NW,315,0.0,0.0,53,0.00,,,0.00,WUHU21623XXSP,2013-09-13 21:46:00,
2013-09-13 17:51:00,65.3,47.2,30.09,NW,315,0.0,0.0,52,0.00,,,0.00,WUHU21623XXSP,2013-09-13 21:51:00,
2013-09-13 17:56:00,65.3,47.2,30.08,SW,225,0.0,0.0,52,0.00,,,0.00,WUHU21623XXSP,2013-09-13 21:56:00,
2013-09-13 18:01:00,65.3,47.7,30.09,SW,225,0.0,0.0,53,0.00,,,0.00,WUHU21623XXSP,2013-09-13 22:01:00,
2013-09-13 18:06:00,65.1,47.5,30.09,WSW,247,0.0,0.0,53,0.00,,,0.00,WUHU21623XXSP,2013-09-13 22:06:00,
2013-09-13 18:11:00,65.1,47.5,30.09,NW,315,0.0,0.0,53,0.00,,,0.00,WUHU21623XXSP,2013-09-13 22:11:00,
2013-09-13 18:16:00,65.1,47.5,30.09,NW,315,0.0,0.0,53,0.00,,,0.00,WUHU21623XXSP,2013-09-13 22:16:00,
2013-09-13 18:21:00,65.1,47.5,30.09,NW,315,0.0,0.0,53,0.00,,,0.00,WUHU21623XXSP,2013-09-13 22:21:00,
2013-09-13 18:23:00,65.1,47.5,30.09,North,0,0.0,0.0,53,0.00,,,0.00,WUHU21623XXSP,2013-09-13 22:23:00,
2013-09-13 18:26:00,65.1,47.5,30.09,NW,315,0.0,0.0,53,0.00,,,0.00,WUHU21623XXSP,2013-09-13 22:26:00,
2013-09-13 18:31:00,65.1,47.5,30.09,North,0,0.0,0.0,53,0.00,,,0.00,WUHU21623XXSP,2013-09-13 22:31:00,
2013-09-13 20:16:00,59.5,45.2,30.11,North,0,0.0,0.0,59,0.00,,,0.00,WUHU21623XXSP,2013-09-14 00:16:00,
2013-09-13 20:21:00,59.2,44.8,30.11,ESE,112,0.0,0.0,59,0.00,,,0.00,WUHU21623XXSP,2013-09-14 00:21:00,
2013-09-13 20:26:00,59.2,44.8,30.11,ESE,112,0.0,0.0,59,0.00,,,0.00,WUHU21623XXSP,2013-09-14 00:26:00,
2013-09-13 20:31:00,58.8,44.5,30.12,ESE,112,0.0,0.0,59,0.00,,,0.00,WUHU21623XXSP,2013-09-14 00:31:00,
2013-09-13 20:36:00,58.8,44.5,30.12,ESE,112,0.0,0.0,59,0.00,,,0.00,WUHU21623XXSP,2013-09-14 00:36:00,
2013-09-13 20:40:00,58.8,44.5,30.12,North,0,0.0,0.0,59,0.00,,,0.00,WUHU21623XXSP,2013-09-14 00:40:00,
2013-09-13 20:41:00,58.8,44.5,30.12,ESE,112,0.0,0.0,59,0.00,,,0.00,WUHU21623XXSP,2013-09-14 00:41:00,
2013-09-13 20:46:00,58.8,44.5,30.12,North,0,0.0,0.0,59,0.00,,,0.00,WUHU21623XXSP,2013-09-14 00:46:00,
2013-09-13 20:53:00,57.7,44.0,30.13,North,0,0.0,0.0,60,0.00,,,0.00,WUHU21623XXSP,2013-09-14 00:53:00,
2013-09-13 20:58:00,57.4,44.1,30.13,North,0,0.0,0.0,61,0.00,,,0.00,WUHU21623XXSP,2013-09-14 00:58:00,
2013-09-13 21:03:00,57.0,43.7,30.13,ESE,112,0.0,0.0,61,0.00,,,0.00,WUHU21623XXSP,2013-09-14 01:03:00,
2013-09-13 21:08:00,57.0,43.7,30.13,ESE,112,0.0,0.0,61,0.00,,,0.00,WUHU21623XXSP,2013-09-14 01:08:00,
2013-09-13 21:13:00,57.0,43.7,30.13,ESE,112,0.0,0.0,61,0.00,,,0.00,WUHU21623XXSP,2013-09-14 01:13:00,
2013-09-13 21:18:00,57.0,43.7,30.13,ESE,112,0.0,0.0,61,0.00,,,0.00,WUHU21623XXSP,2013-09-14 01:18:00,
2013-09-13 21:23:00,57.0,44.5,30.14,ESE,112,0.0,0.0,63,0.00,,,0.00,WUHU21623XXSP,2013-09-14 01:23:00,
2013-09-13 21:28:00,57.0,44.5,30.13,ESE,112,0.0,0.0,63,0.00,,,0.00,WUHU21623XXSP,2013-09-14 01:28:00,
2013-09-13 21:33:00,57.0,44.5,30.14,ESE,112,0.0,0.0,63,0.00,,,0.00,WUHU21623XXSP,2013-09-14 01:33:00,
2013-09-13 21:38:00,57.0,44.5,30.14,ESE,112,0.0,0.0,63,0.00,,,0.00,WUHU21623XXSP,2013-09-14 01:38:00,
2013-09-13 21:42:00,57.0,44.5,30.14,North,0,0.0,0.0,63,0.00,,,0.00,WUHU21623XXSP,2013-09-14 01:42:00,
2013-09-13 21:43:00,57.0,44.5,30.14,ESE,112,0.0,0.0,63,0.00,,,0.00,WUHU21623XXSP,2013-09-14 01:43:00,
2013-09-13 21:48:00,57.0,44.5,30.14,North,0,0.0,0.0,63,0.00,,,0.00,WUHU21623XXSP,2013-09-14 01:48:00,
2013-09-13 22:27:00,54.1,42.6,30.15,North,0,0.0,0.0,65,0.00,,,0.00,WUHU21623XXSP,2013-09-14 02:27:00,
2013-09-13 22:32:00,54.0,42.4,30.15,ESE,112,0.0,0.0,65,0.00,,,0.00,WUHU21623XXSP,2013-09-14 02:32:00,
2013-09-13 22:37:00,54.0,42.4,30.15,ESE,112,0.0,0.0,65,0.00,,,0.00,WUHU21623XXSP,2013-09-14 02:37:00,
2013-09-13 22:42:00,54.0,42.4,30.15,ESE,112,0.0,0.0,65,0.00,,,0.00,WUHU21623XXSP,2013-09-14 02:42:00,
2013-09-13 22:47:00,54.0,42.4,30.15,ESE,112,0.0,0.0,65,0.00,,,0.00,WUHU21623XXSP,2013-09-14 02:47:00,
2013-09-13 22:52:00,54.0,42.4,30.15,North,0,0.0,0.0,65,0.00,,,0.00,WUHU21623XXSP,2013-09-14 02:52:00,